Tracking 28790 objects as of 19-Apr-2024
HD Live streaming from Space Station
objects crossing your sky now

COSMOS 1317 DEB

Track COSMOS 1317 DEB now!


NORAD ID: 14735
Int'l Code: 1981-108F
Perigee: 6,821.0 km
Apogee: 33,407.2 km
Inclination: 71.3 °
Period: 714.9 minutes
Semi major axis: 26485 km
RCS: 0.317 m2 (medium)
Launch date: October 31, 1981
Source: Commonwealth of Independent States (former USSR) (CIS)
Launch site: PLESETSK MISSILE AND SPACE COMPLEX (PKMTR)

Note: This is SATELLITE DEBRIS
Your satellite tracking list
Your tracking list is empty




NASA's NSSDC Master Catalog

Two Line Element Set (TLE):
1 14735U 81108F   24109.33896483  .00000372  00000-0  00000-0 0  9990
2 14735  71.2672 117.9412 5019079 345.6181  45.4305  2.01419056129080
Source of the keplerian elements: AFSPC